• In Hungary
  • List of Countries
  • For 7 days
  • Water Temperature
  • Satellite Maps
  • Weather Map
  • News
  • Weather Widgets
  • user-avatar
    Login

    Hourly Weather Prachatice

    Today, 23 October, Monday

    Time Temperature Precipitation Wind Pressure Humidity
    00:00 +4°C° 0.1 mm 3 mps 701 mmHg 88%
    01:00 +4°C° 0 mm 3 mps 700 mmHg 89%
    02:00 +4°C° 0.3 mm 3 mps 700 mmHg 89%
    03:00 +4°C° 0.3 mm 3 mps 700 mmHg 90%
    04:00 +4°C° 0.3 mm 4 mps 700 mmHg 90%
    05:00 +4°C° 0.6 mm 4 mps 701 mmHg 90%
    06:00 +4°C° 0.6 mm 4 mps 701 mmHg 90%
    07:00 +4°C° 0 mm 4 mps 701 mmHg 91%
    08:00 +5°C° 0.2 mm 5 mps 701 mmHg 88%
    09:00 +5°C° 0.2 mm 5 mps 701 mmHg 85%
    10:00 +5°C° 0.2 mm 5 mps 702 mmHg 82%
    11:00 +6°C° 0.1 mm 5 mps 702 mmHg 82%
    12:00 +6°C° 0.1 mm 5 mps 702 mmHg 81%
    13:00 +6°C° 0.1 mm 5 mps 702 mmHg 81%
    14:00 +6°C° 0.3 mm 5 mps 702 mmHg 83%
    15:00 +5°C° 0.3 mm 5 mps 703 mmHg 85%
    16:00 +5°C° 0.3 mm 5 mps 703 mmHg 87%
    17:00 +5°C° 0.2 mm 4 mps 703 mmHg 88%
    18:00 +5°C° 0.2 mm 4 mps 704 mmHg 88%
    19:00 +5°C° 0.2 mm 4 mps 704 mmHg 89%
    20:00 +5°C° 0 mm 4 mps 704 mmHg 90%
    21:00 +4°C° 0 mm 3 mps 704 mmHg 91%
    22:00 +4°C° 0 mm 3 mps 705 mmHg 92%
    23:00 +4°C° 0 mm 3 mps 705 mmHg 93%

    Tomorrow, 24 October, Tuesday

    Time Temperature Precipitation Wind Pressure Humidity
    00:00 +5°C° 0 mm 2 mps 705 mmHg 94%
    01:00 +4°C° 0 mm 2 mps 705 mmHg 96%
    02:00 +5°C° 0.3 mm 2 mps 706 mmHg 95%
    03:00 +5°C° 0.3 mm 2 mps 706 mmHg 95%
    04:00 +5°C° 0.3 mm 2 mps 706 mmHg 95%
    05:00 +6°C° 0.1 mm 2 mps 706 mmHg 95%
    06:00 +6°C° 0.1 mm 2 mps 707 mmHg 94%
    07:00 +6°C° 0.1 mm 2 mps 707 mmHg 94%
    08:00 +7°C° 0 mm 3 mps 707 mmHg 91%
    09:00 +8°C° 0 mm 3 mps 708 mmHg 88%
    10:00 +8°C° 0 mm 3 mps 708 mmHg 85%
    11:00 +9°C° 0 mm 3 mps 708 mmHg 82%
    12:00 +9°C° 0 mm 3 mps 708 mmHg 79%
    13:00 +10°C° 0 mm 3 mps 708 mmHg 76%
    14:00 +9°C° 0 mm 2 mps 708 mmHg 78%
    15:00 +9°C° 0 mm 2 mps 708 mmHg 80%
    16:00 +9°C° 0 mm 2 mps 708 mmHg 83%
    17:00 +9°C° 0 mm 1 mps 708 mmHg 86%
    18:00 +8°C° 0 mm 1 mps 708 mmHg 90%
    19:00 +7°C° 0 mm 1 mps 708 mmHg 94%
    20:00 +7°C° 0 mm 1 mps 708 mmHg 93%
    21:00 +7°C° 0 mm 1 mps 708 mmHg 93%
    22:00 +7°C° 0 mm 1 mps 708 mmHg 93%
    23:00 +7°C° 0 mm 1 mps 708 mmHg 93%

    Day after tomorrow, 25 October, Wednesday

    Time Temperature Precipitation Wind Pressure Humidity
    00:00 +8°C° 0 mm 1 mps 708 mmHg 92%
    01:00 +8°C° 0 mm 1 mps 708 mmHg 92%
    02:00 +8°C° 0 mm 1 mps 708 mmHg 92%
    03:00 +8°C° 0 mm 1 mps 708 mmHg 93%
    04:00 +8°C° 0 mm 1 mps 708 mmHg 93%
    05:00 +8°C° 0 mm 1 mps 707 mmHg 94%
    06:00 +8°C° 0 mm 1 mps 707 mmHg 94%
    07:00 +8°C° 0 mm 1 mps 707 mmHg 94%
    08:00 +9°C° 0 mm 1 mps 708 mmHg 89%
    09:00 +10°C° 0 mm 2 mps 708 mmHg 84%
    10:00 +12°C° 0 mm 2 mps 708 mmHg 79%
    11:00 +13°C° 0 mm 2 mps 708 mmHg 77%
    12:00 +14°C° 0 mm 2 mps 708 mmHg 74%
    13:00 +14°C° 0 mm 3 mps 708 mmHg 71%
    14:00 +15°C° 0 mm 2 mps 708 mmHg 74%
    15:00 +14°C° 0 mm 2 mps 708 mmHg 77%
    16:00 +14°C° 0 mm 2 mps 708 mmHg 80%
    17:00 +13°C° 0 mm 2 mps 708 mmHg 84%
    18:00 +11°C° 0 mm 1 mps 708 mmHg 87%
    19:00 +10°C° 0 mm 1 mps 708 mmHg 91%
    20:00 +10°C° 0 mm 1 mps 708 mmHg 91%
    21:00 +10°C° 0 mm 1 mps 709 mmHg 91%
    22:00 +10°C° 0 mm 1 mps 709 mmHg 91%
    23:00 +9°C° 0 mm 1 mps 709 mmHg 92%

    26 October, Thursday

    Time Temperature Precipitation Wind Pressure Humidity
    00:00 +9°C° 0 mm 1 mps 709 mmHg 93%
    01:00 +9°C° 0 mm 1 mps 709 mmHg 94%
    02:00 +9°C° 0 mm 1 mps 709 mmHg 94%
    03:00 +8°C° 0 mm 1 mps 709 mmHg 95%
    04:00 +8°C° 0 mm 1 mps 709 mmHg 95%
    05:00 +8°C° 0 mm 1 mps 709 mmHg 95%
    06:00 +8°C° 0 mm 1 mps 709 mmHg 95%
    07:00 +8°C° 0 mm 1 mps 709 mmHg 95%
    08:00 +10°C° 0 mm 1 mps 709 mmHg 90%
    09:00 +12°C° 0 mm 1 mps 709 mmHg 85%
    10:00 +13°C° 0 mm 2 mps 709 mmHg 79%
    11:00 +14°C° 0 mm 2 mps 709 mmHg 75%
    12:00 +15°C° 0 mm 2 mps 709 mmHg 70%
    13:00 +17°C° 0 mm 3 mps 709 mmHg 66%
    14:00 +16°C° 0 mm 2 mps 708 mmHg 70%
    15:00 +15°C° 0 mm 2 mps 708 mmHg 73%
    16:00 +14°C° 0 mm 2 mps 708 mmHg 77%
    17:00 +13°C° 0 mm 2 mps 707 mmHg 82%
    18:00 +12°C° 0 mm 1 mps 707 mmHg 87%
    19:00 +10°C° 0 mm 1 mps 707 mmHg 92%
    20:00 +9°C° 0 mm 2 mps 707 mmHg 92%
    21:00 +9°C° 0 mm 2 mps 707 mmHg 92%
    22:00 +9°C° 0 mm 2 mps 707 mmHg 92%
    23:00 +9°C° 0 mm 2 mps 707 mmHg 92%

    27 October, Friday

    Time Temperature Precipitation Wind Pressure Humidity
    00:00 +9°C° 0 mm 2 mps 706 mmHg 93%
    01:00 +9°C° 0 mm 2 mps 706 mmHg 93%
    02:00 +9°C° 0 mm 2 mps 706 mmHg 93%
    03:00 +9°C° 0 mm 2 mps 705 mmHg 94%
    04:00 +9°C° 0 mm 2 mps 705 mmHg 94%
    05:00 +9°C° 0 mm 3 mps 705 mmHg 93%
    06:00 +9°C° 0 mm 3 mps 705 mmHg 92%
    07:00 +10°C° 0 mm 3 mps 704 mmHg 91%
    08:00 +10°C° 0 mm 4 mps 704 mmHg 88%
    09:00 +10°C° 0 mm 5 mps 704 mmHg 85%
    10:00 +10°C° 0 mm 6 mps 704 mmHg 82%
    11:00 +10°C° 0.2 mm 6 mps 704 mmHg 81%
    12:00 +10°C° 0.2 mm 6 mps 703 mmHg 80%
    13:00 +11°C° 0.2 mm 6 mps 703 mmHg 78%
    14:00 +9°C° 1.5 mm 5 mps 703 mmHg 81%
    15:00 +8°C° 1.5 mm 5 mps 703 mmHg 84%
    16:00 +7°C° 1.5 mm 4 mps 703 mmHg 87%
    17:00 +6°C° 0.4 mm 4 mps 703 mmHg 88%
    18:00 +6°C° 0.4 mm 4 mps 703 mmHg 89%
    19:00 +5°C° 0.4 mm 4 mps 704 mmHg 89%
    20:00 +5°C° 0 mm 4 mps 704 mmHg 90%
    21:00 +5°C° 0 mm 4 mps 704 mmHg 90%
    22:00 +4°C° 0 mm 4 mps 705 mmHg 90%
    23:00 +4°C° 0 mm 4 mps 705 mmHg 90%

    28 October, Saturday

    Time Temperature Precipitation Wind Pressure Humidity
    00:00 +4°C° 0 mm 4 mps 705 mmHg 91%
    01:00 +3°C° 0 mm 4 mps 705 mmHg 91%
    02:00 +3°C° 0 mm 4 mps 705 mmHg 90%
    03:00 +3°C° 0 mm 4 mps 705 mmHg 89%
    04:00 +2°C° 0 mm 5 mps 705 mmHg 89%
    05:00 +2°C° 0.1 mm 5 mps 705 mmHg 88%
    06:00 +2°C° 0.1 mm 5 mps 704 mmHg 88%
    07:00 +2°C° 0.1 mm 5 mps 704 mmHg 87%
    08:00 +2°C° 0.2 mm 5 mps 704 mmHg 86%
    09:00 +3°C° 0.2 mm 6 mps 704 mmHg 84%
    10:00 +3°C° 0.2 mm 6 mps 704 mmHg 83%
    11:00 +3°C° 0.4 mm 6 mps 704 mmHg 83%
    12:00 +3°C° 0.4 mm 7 mps 704 mmHg 82%
    13:00 +4°C° 0.4 mm 7 mps 704 mmHg 82%
    14:00 +3°C° 0.3 mm 7 mps 703 mmHg 82%
    15:00 +3°C° 0.3 mm 7 mps 703 mmHg 83%
    16:00 +3°C° 0.3 mm 7 mps 703 mmHg 83%
    17:00 +3°C° 0.5 mm 7 mps 703 mmHg 85%
    18:00 +3°C° 0.5 mm 7 mps 703 mmHg 86%
    19:00 +3°C° 0.5 mm 7 mps 703 mmHg 87%
    20:00 +3°C° 0.2 mm 7 mps 703 mmHg 88%
    21:00 +3°C° 0.2 mm 6 mps 704 mmHg 88%
    22:00 +4°C° 0.2 mm 6 mps 704 mmHg 89%
    23:00 +4°C° 0.3 mm 6 mps 704 mmHg 89%

    29 October, Sunday

    Time Temperature Precipitation Wind Pressure Humidity
    00:00 +4°C° 0.3 mm 6 mps 704 mmHg 88%
    01:00 +4°C° 0.3 mm 6 mps 704 mmHg 88%
    02:00 +4°C° 0.2 mm 6 mps 704 mmHg 88%
    03:00 +4°C° 0.2 mm 6 mps 704 mmHg 88%
    04:00 +4°C° 0.2 mm 6 mps 703 mmHg 88%
    05:00 +4°C° 0.2 mm 6 mps 704 mmHg 88%
    06:00 +5°C° 0.2 mm 5 mps 704 mmHg 89%
    07:00 +5°C° 0.2 mm 5 mps 704 mmHg 89%
    08:00 +5°C° 0.1 mm 5 mps 704 mmHg 88%
    09:00 +5°C° 0.1 mm 5 mps 704 mmHg 87%
    10:00 +5°C° 0.1 mm 5 mps 704 mmHg 86%
    11:00 +5°C° 0.1 mm 5 mps 703 mmHg 86%
    12:00 +5°C° 0.1 mm 5 mps 703 mmHg 85%
    13:00 +6°C° 0.1 mm 5 mps 703 mmHg 85%
    14:00 +5°C° 0.5 mm 5 mps 702 mmHg 86%
    15:00 +5°C° 0.5 mm 5 mps 702 mmHg 88%
    16:00 +5°C° 0.5 mm 5 mps 701 mmHg 89%
    17:00 +5°C° 0.3 mm 5 mps 701 mmHg 89%
    18:00 +4°C° 0.3 mm 6 mps 701 mmHg 89%
    19:00 +4°C° 0.3 mm 6 mps 701 mmHg 89%
    20:00 +4°C° 0 mm 6 mps 701 mmHg 88%
    21:00 +3°C° 0 mm 6 mps 700 mmHg 87%
    22:00 +3°C° 0 mm 6 mps 700 mmHg 86%
    23:00 +3°C° 0.2 mm 6 mps 699 mmHg 86%
    Show more